Vorticity
9 21 10 9 6 15 7 16 18 4 8 6 5 14 6 4 7 5 3 5 5 6 2 4 1 3 4 3 2 5 3 10 9 9 10 9 7 5 4 6 4 2 3 4
2 -5 6 46 8 7 4 11 9 8 15 2 10 3 10 8 5 5 6 6 5 5 6 1 1 2 2 3 5 7 12 10 10 11 7 8 10 7 6 2 1 -1 2 2
0 16 26 0 10 2 10 21 -3 9 11 -16 12 3 1 6 6 -2 5 8 9 3 8 9 9 7 12 19 22 18 2 11 15 14 11 8 5 4 5 -1 -4 1 -0 4
38 8 -7 5 8 2 7 3 8 7 11 8 9 7 5 11 8 6 12 1 5 1 0 9 17 17 13 12 0 3 12 9 7 9 3 2 6 1 -6 1 0 -2 1 9
3 10 10 8 19 5 12 12 7 1 3 17 2 -1 10 0 5 17 6 16 6 4 8 14 11 5 3 -0 -2 10 3 3 3 4 5 5 5 -1 -2 -0 0 6 -0 8
23 5 2 14 9 0 10 13 6 7 8 15 3 0 34 -0 5 14 10 7 7 7 9 10 4 5 3 -3 8 8 2 0 3 3 3 5 3 3 5 5 3 4 19 8
1 7 17 11 3 17 -2 8 2 14 20 2 31 12 1 14 8 20 7 14 10 5 9 8 9 4 -1 2 9 2 4 2 2 2 4 6 3 2 4 3 6 12 10 8
2 7 2 15 0 3 8 9 -18 14 13 3 6 7 27 18 3 29 18 10 6 9 10 9 12 -3 3 5 6 5 1 4 5 3 4 7 4 4 -4 15 7 8 9 10
19 4 9 -3 5 9 29 7 16 6 -2 11 -2 0 11 23 26 28 16 10 6 14 7 13 3 1 1 -0 6 3 1 -1 4 6 5 6 4 20 7 7 9 9 8 8
14 -2 7 13 14 16 -8 24 10 7 13 8 21 9 17 6 19 16 13 9 8 12 7 8 1 3 0 1 1 8 5 0 3 4 5 2 7 10 17 11 7 6 6 7
6 6 13 6 6 6 14 9 6 10 7 8 10 21 4 11 19 16 17 12 9 8 5 6 5 2 3 2 2 2 4 5 5 -0 8 2 9 21 8 6 5 5 6 9
13 18 6 11 9 4 1 11 11 4 13 9 8 6 3 4 13 16 17 14 9 9 7 -3 5 5 3 5 3 2 3 6 6 3 4 6 15 9 7 5 5 8 8 9
11 13 4 9 9 19 12 12 7 7 4 3 -0 0 7 -5 4 13 16 16 12 9 8 -4 3 10 7 6 5 4 8 6 4 5 5 10 12 7 7 6 6 7 8 7
10 12 6 -1 5 27 17 11 10 2 0 4 7 -9 -2 -0 7 7 6 18 14 13 4 0 1 4 4 5 6 7 6 9 6 6 10 7 8 8 6 3 7 7 7 6
1 10 15 6 -1 -9 3 8 15 10 3 -8 3 3 0 7 8 11 10 -4 19 2 4 11 11 10 8 7 10 12 12 10 3 10 8 4 10 8 2 9 6 7 6 7
7 5 7 12 7 16 13 7 9 12 11 7 5 3 7 6 21 4 12 4 11 13 11 12 11 10 11 13 12 10 15 3 8 3 4 7 9 -1 7 6 7 7 7 12
10 3 15 19 5 13 27 21 10 8 7 3 10 6 17 7 15 19 17 4 15 16 13 12 13 11 10 11 12 12 6 2 5 13 11 14 -6 8 8 6 7 7 12 12
14 17 1 10 16 9 17 9 7 17 14 12 6 12 12 9 1 -4 4 8 13 19 12 4 10 14 14 10 8 9 9 -1 9 12 11 4 13 7 6 7 7 12 13 12
13 9 9 1 12 -14 7 16 2 3 5 14 17 23 17 2 17 14 21 12 9 -5 8 16 16 17 15 13 8 9 4 2 1 28 4 4 6 6 7 6 10 12 14 14
6 11 -5 20 9 3 16 6 7 10 15 18 17 11 -3 -2 13 7 9 3 -4 10 12 14 10 4 12 11 12 8 7 17 18 16 0 4 5 8 6 9 12 13 14 12
23 18 6 10 1 12 8 9 16 20 -1 -2 -3 -7 0 21 10 -6 -8 11 5 9 5 5 7 4 13 4 13 8 4 8 10 12 6 7 7 7 7 11 14 13 13 12
7 13 21 16 10 16 20 17 12 -12 -7 4 13 22 4 4 5 7 5 7 12 9 10 6 3 -1 -4 17 21 8 26 14 4 3 7 7 7 6 12 15 14 13 12 11
16 0 1 -2 4 -8 -14 -6 -0 5 8 13 11 14 5 9 13 11 1 9 10 11 9 13 5 8 0 35 6 25 25 17 8 9 9 6 6 11 13 14 11 13 12 11
10 14 8 11 19 20 6 9 16 17 20 11 8 7 6 7 10 11 7 6 11 8 9 14 12 12 14 33 20 25 7 10 5 7 5 7 6 11 13 12 13 12 10 11
-1 -1 17 12 13 23 19 17 -7 2 7 6 7 8 6 7 7 6 6 10 10 11 14 12 18 15 37 21 26 9 8 7 5 5 4 6 9 10 14 12 13 9 11 10
14 18 12 14 10 -1 3 -10 4 7 7 11 10 9 6 5 7 8 13 15 14 8 11 16 21 38 21 11 12 9 13 7 4 5 7 6 8 13 12 11 10 7 8 11
Height
3129 3130 3129 3130 3131 3131 3130 3129 3129 3132 3137 3139 3140 3141 3143 3145 3148 3150 3152 3154 3155 3155 3155 3156 3156 3157 3158 3158 3158 3159 3158 3157 3157 3156 3156 3155 3154 3153 3152 3151 3150 3149 3147 3145
3131 3131 3129 3128 3130 3131 3130 3129 3130 3135 3137 3138 3139 3140 3143 3143 3146 3148 3150 3152 3153 3153 3152 3153 3154 3155 3155 3155 3154 3156 3154 3154 3154 3153 3153 3151 3150 3149 3148 3146 3145 3144 3143 3139
3128 3128 3127 3129 3130 3131 3129 3129 3132 3133 3136 3136 3136 3135 3139 3140 3143 3144 3147 3149 3150 3149 3148 3149 3150 3150 3150 3150 3150 3151 3152 3152 3151 3151 3150 3149 3147 3145 3143 3142 3139 3138 3136 3133
3129 3129 3129 3130 3130 3131 3130 3130 3132 3133 3134 3131 3132 3126 3130 3134 3135 3138 3140 3143 3144 3145 3144 3144 3145 3145 3146 3147 3148 3148 3148 3148 3148 3148 3147 3145 3145 3143 3139 3137 3134 3131 3126 3125
3127 3128 3129 3128 3128 3129 3131 3132 3132 3133 3129 3125 3127 3129 3126 3137 3135 3133 3135 3137 3138 3139 3139 3140 3141 3142 3143 3144 3144 3144 3144 3144 3144 3143 3142 3141 3139 3138 3135 3132 3130 3126 3121 3117
3125 3126 3128 3127 3129 3130 3130 3131 3131 3132 3128 3127 3124 3125 3123 3128 3129 3130 3130 3132 3134 3134 3135 3136 3137 3139 3140 3141 3141 3141 3141 3140 3139 3138 3137 3136 3134 3132 3128 3126 3123 3119 3114 3109
3126 3126 3126 3128 3130 3130 3131 3132 3127 3124 3123 3124 3123 3123 3123 3124 3124 3128 3128 3128 3129 3130 3132 3132 3134 3135 3136 3137 3137 3137 3136 3135 3134 3133 3132 3129 3127 3125 3120 3118 3115 3110 3105 3101
3119 3123 3124 3126 3129 3129 3130 3128 3126 3123 3121 3118 3122 3122 3120 3120 3121 3124 3126 3126 3125 3127 3128 3129 3131 3131 3132 3132 3132 3132 3131 3131 3129 3128 3126 3123 3121 3118 3114 3110 3106 3102 3098 3093
3115 3117 3122 3123 3126 3129 3126 3128 3128 3126 3127 3127 3122 3119 3117 3117 3119 3121 3123 3123 3122 3122 3124 3126 3127 3127 3127 3128 3127 3127 3126 3124 3123 3122 3120 3117 3115 3111 3106 3103 3098 3094 3089 3084
3117 3118 3120 3121 3123 3124 3126 3126 3127 3127 3127 3124 3113 3115 3115 3117 3118 3118 3121 3120 3121 3121 3121 3121 3122 3122 3122 3122 3122 3121 3119 3118 3117 3116 3112 3110 3108 3103 3099 3094 3091 3087 3081 3075
3119 3120 3120 3121 3121 3120 3123 3124 3125 3124 3125 3122 3118 3114 3114 3116 3117 3117 3118 3119 3119 3119 3119 3117 3117 3118 3117 3117 3116 3115 3113 3112 3111 3109 3106 3104 3100 3095 3090 3087 3083 3079 3073 3067
3117 3117 3118 3119 3117 3118 3119 3120 3121 3123 3122 3123 3123 3118 3114 3114 3114 3114 3115 3117 3118 3117 3117 3114 3112 3113 3112 3111 3110 3109 3108 3106 3105 3103 3100 3095 3092 3087 3083 3080 3075 3069 3064 3058
3114 3115 3116 3116 3118 3115 3116 3117 3118 3120 3119 3119 3121 3117 3112 3111 3111 3111 3112 3113 3112 3113 3113 3110 3108 3107 3107 3106 3105 3103 3102 3100 3098 3095 3091 3087 3083 3079 3076 3072 3066 3061 3056 3049
3110 3112 3112 3112 3111 3111 3113 3114 3115 3116 3116 3116 3114 3113 3112 3110 3109 3110 3108 3109 3110 3109 3108 3105 3102 3102 3101 3100 3099 3097 3095 3093 3090 3088 3084 3079 3075 3073 3069 3064 3059 3052 3046 3040
3108 3108 3109 3109 3109 3109 3110 3111 3111 3111 3111 3112 3110 3110 3110 3110 3109 3108 3106 3104 3105 3103 3101 3099 3097 3096 3095 3093 3092 3090 3087 3085 3083 3079 3076 3072 3069 3065 3061 3056 3051 3044 3038 3032
3104 3106 3105 3105 3107 3106 3106 3107 3107 3107 3107 3107 3107 3106 3107 3105 3104 3102 3101 3099 3098 3097 3096 3094 3093 3091 3089 3087 3085 3082 3080 3077 3075 3071 3069 3065 3062 3058 3054 3049 3044 3037 3031 3025
3101 3101 3103 3104 3102 3103 3102 3099 3101 3103 3103 3104 3103 3103 3102 3099 3097 3096 3096 3093 3093 3092 3091 3089 3087 3085 3083 3080 3078 3076 3074 3070 3068 3064 3060 3057 3053 3050 3046 3041 3035 3029 3023 3018
3097 3098 3100 3101 3101 3103 3096 3095 3096 3097 3098 3099 3098 3098 3098 3095 3093 3091 3090 3089 3087 3087 3085 3084 3082 3079 3077 3075 3071 3070 3066 3062 3059 3055 3051 3048 3046 3043 3039 3033 3027 3022 3017 3011
3094 3095 3096 3098 3097 3095 3094 3093 3093 3092 3094 3094 3093 3093 3093 3089 3088 3087 3084 3084 3083 3081 3080 3077 3075 3074 3071 3069 3065 3062 3059 3054 3050 3046 3044 3042 3039 3036 3031 3026 3020 3015 3010 3005
3091 3092 3095 3094 3095 3093 3089 3088 3088 3089 3091 3087 3088 3087 3087 3086 3085 3087 3081 3079 3078 3075 3073 3071 3069 3067 3064 3061 3058 3055 3051 3045 3039 3035 3034 3033 3032 3029 3024 3018 3013 3008 3003 2998
3087 3089 3090 3091 3091 3089 3086 3085 3086 3089 3091 3084 3085 3084 3083 3082 3083 3078 3077 3074 3071 3069 3066 3064 3063 3060 3057 3052 3050 3044 3037 3033 3032 3030 3027 3027 3025 3022 3017 3011 3006 3001 2997 2992
3086 3086 3086 3088 3088 3086 3083 3083 3086 3084 3083 3081 3079 3078 3076 3075 3074 3072 3069 3067 3065 3063 3060 3058 3055 3050 3046 3041 3038 3030 3025 3024 3023 3023 3023 3021 3018 3015 3010 3004 2998 2993 2989 2986
3084 3084 3085 3086 3085 3081 3081 3081 3079 3078 3077 3076 3073 3073 3070 3068 3067 3065 3061 3059 3057 3055 3051 3049 3045 3041 3036 3032 3026 3020 3020 3017 3017 3018 3019 3015 3012 3007 3001 2997 2992 2987 2983 2980
3079 3079 3079 3080 3080 3078 3077 3075 3073 3072 3070 3070 3068 3066 3064 3062 3060 3058 3054 3050 3049 3045 3041 3039 3034 3031 3027 3021 3016 3015 3013 3013 3012 3012 3012 3009 3004 3000 2995 2990 2986 2981 2977 2973
3077 3075 3075 3074 3074 3074 3072 3070 3067 3067 3064 3063 3062 3059 3056 3056 3053 3050 3046 3043 3040 3035 3032 3029 3026 3022 3017 3013 3010 3009 3008 3008 3008 3008 3005 3001 2996 2991 2988 2983 2980 2976 2972 2968
3071 3072 3070 3070 3069 3068 3068 3063 3062 3060 3058 3056 3055 3053 3049 3048 3045 3041 3037 3033 3030 3027 3023 3020 3016 3012 3011 3011 3009 3008 3005 3004 3003 3000 2997 2993 2989 2984 2980 2976 2973 2970 2966 2962